TimeCDT,TemperatureF,Dew PointF,Humidity,Sea Level PressureIn,VisibilityMPH,Wind Direction,Wind SpeedMPH,Gust SpeedMPH,PrecipitationIn,Events,Conditions,WindDirDegrees,DateUTC
12:53 AM,82.0,64.9,56,29.75,10.0,South,20.7,32.2,N/A,,Partly Cloudy,170,2013-06-23 05:53:00
1:53 AM,81.0,66.0,60,29.74,10.0,South,19.6,29.9,N/A,,Clear,170,2013-06-23 06:53:00
2:53 AM,80.1,66.0,62,29.74,10.0,South,20.7,28.8,N/A,,Clear,170,2013-06-23 07:53:00
3:53 AM,79.0,66.0,64,29.74,10.0,SSE,21.9,-,N/A,,Clear,160,2013-06-23 08:53:00
4:53 AM,78.1,66.0,66,29.74,10.0,South,19.6,25.3,N/A,,Clear,170,2013-06-23 09:53:00
5:53 AM,78.1,66.0,66,29.74,10.0,South,16.1,24.2,N/A,,Clear,170,2013-06-23 10:53:00
6:53 AM,77.0,66.0,69,29.81,10.0,SW,10.4,24.2,N/A,,Scattered Clouds,230,2013-06-23 11:53:00
7:53 AM,78.1,66.9,68,29.80,10.0,ESE,5.8,-,N/A,,Mostly Cloudy,110,2013-06-23 12:53:00
8:53 AM,78.1,66.9,68,29.82,10.0,East,8.1,-,N/A,,Partly Cloudy,100,2013-06-23 13:53:00
9:53 AM,75.9,64.9,69,29.81,10.0,East,12.7,-,N/A,,Clear,100,2013-06-23 14:53:00
10:53 AM,81.0,66.9,62,29.81,10.0,NE,13.8,-,N/A,,Partly Cloudy,50,2013-06-23 15:53:00
11:53 AM,82.0,69.1,65,29.81,10.0,NE,12.7,-,N/A,,Overcast,50,2013-06-23 16:53:00
12:53 PM,90.0,64.0,42,29.79,10.0,South,9.2,-,N/A,,Overcast,190,2013-06-23 17:53:00
1:53 PM,91.9,64.0,39,29.78,10.0,SSE,11.5,-,N/A,,Clear,160,2013-06-23 18:53:00
2:53 PM,91.9,64.0,39,29.77,10.0,South,12.7,24.2,N/A,,Partly Cloudy,180,2013-06-23 19:53:00
3:53 PM,91.9,66.0,42,29.75,10.0,South,12.7,23.0,N/A,,Scattered Clouds,180,2013-06-23 20:53:00
4:53 PM,95.0,64.0,36,29.73,10.0,South,16.1,26.5,N/A,,Partly Cloudy,180,2013-06-23 21:53:00
5:53 PM,95.0,64.9,37,29.73,10.0,SSW,16.1,-,N/A,,Mostly Cloudy,200,2013-06-23 22:53:00
6:53 PM,93.9,60.1,32,29.73,10.0,South,13.8,-,N/A,,Overcast,180,2013-06-23 23:53:00
7:53 PM,91.9,59.0,33,29.75,10.0,South,11.5,-,N/A,,Mostly Cloudy,180,2013-06-24 00:53:00
8:53 PM,90.0,59.0,35,29.76,10.0,South,15.0,-,N/A,,Partly Cloudy,180,2013-06-24 01:53:00
9:53 PM,86.0,62.1,44,29.78,10.0,South,16.1,23.0,N/A,,Clear,170,2013-06-24 02:53:00
10:53 PM,84.0,63.0,49,29.81,10.0,SSE,15.0,-,N/A,,Clear,160,2013-06-24 03:53:00
11:53 PM,82.0,64.9,56,29.83,10.0,SSE,16.1,-,N/A,,Clear,150,2013-06-24 04:53:00